Location: ????????
(55.0559°N, 39.1270°E)
Time: 18:31:39
(UTC+00:00)

Lacrosse 5 rocket - Pass Details

Date: 15 November 2025
Orbit: 406 x 491 km, 57.0° (Epoch: 14 December)

Event Time Altitude Azimuth Distance (km) Brightness Sun altitude
Exits shadow 01:24:04 16° 85° (E) 1,205 3.8 -29.9°
Drops below altitude 10° 01:24:50 10° 87° (E) 1,509 4.5 -29.8°
Sets 01:26:54 0° 91° (E) 2,360 5.7 -29.5°
